Change the Weather History Date:

Friday, May 9, 2014

  Actual Average Record
Temperature  
Mean Temperature 70 °F -  
Max Temperature 77 °F 78 °F 91 °F (1986)
Min Temperature 63 °F 56 °F 40 °F (1980)
Cooling Degree Days 5    
Growing Degree Days 20 (Base 50)    
Moisture  
Dew Point 65 °F    
Average Humidity 88    
Maximum Humidity 100    
Minimum Humidity 66    
Precipitation  
Precipitation 0.49 in - - ()
Sea Level Pressure  
Sea Level Pressure 29.92 in    
Wind  
Wind Speed 12 mph (South)    
Max Wind Speed 18 mph    
Max Gust Speed 28 mph    
Visibility 9 miles    
Events Rain    
Averages and records for this station are not official NWS values.
T = Trace of Precipitation, MM = Missing Value Source: NWS Daily Summary

Daily Weather History Graph

Daily Weather History Graph

Search for Another Location

Airport or City:

Trip Planner

Search our weather history database for the weather conditions in past years. The results will help you decide how hot, cold, wet, or windy it might be!

Date:

Astronomy

May. 09, 2014 Rise Set
Actual Time 6:02 AM CDT 7:53 PM CDT
Civil Twilight 5:34 AM CDT 8:20 PM CDT
Nautical Twilight 5:00 AM CDT 8:54 PM CDT
Astronomical Twilight 4:25 AM CDT 9:30 PM CDT
Moon 3:02 PM CDT (5/9) 2:52 AM CDT (5/9)
Length of Visible Light 14h 46m
Length of Day
13h 51m
Waxing Gibbous, 74% of the Moon is Illuminated
May 9
Waxing Gibbous
May 14
Full
May 21
Last Quarter
May 28
New
Jun 5
First Quarter

Hourly Weather History & Observations

Time (CDT) Temp. Dew Point Humidity Pressure Visibility Wind Dir Wind Speed Gust Speed Precip Events Conditions
12:53 AM 75.0 °F 63.0 °F 66% 29.88 in 10.0 mi South 18.4 mph - N/A   Overcast
1:53 AM 73.0 °F 64.9 °F 76% 29.87 in 10.0 mi South 18.4 mph 27.6 mph 0.00 in Rain Light Rain
2:53 AM 69.1 °F 66.9 °F 93% 29.91 in 3.0 mi West 11.5 mph - 0.12 in Rain Heavy Rain
3:00 AM 64.9 °F 64.0 °F 97% 29.93 in 2.0 mi WNW 9.2 mph 18.4 mph 0.07 in Rain Heavy Rain
3:16 AM 64.0 °F 63.0 °F 96% 29.93 in 3.0 mi West 5.8 mph - 0.15 in Rain Light Rain
3:53 AM 64.0 °F 63.0 °F 96% 29.89 in 9.0 mi Calm Calm - 0.20 in Rain Light Rain
4:05 AM 63.0 °F 63.0 °F 100% 29.90 in 1.8 mi Calm Calm - 0.09 in Rain Heavy Rain
4:12 AM 63.0 °F 63.0 °F 100% 29.87 in 1.8 mi East 8.1 mph - 0.16 in Rain Heavy Rain
4:15 AM 63.0 °F 63.0 °F 100% 29.86 in 3.0 mi East 10.4 mph - 0.16 in Rain Light Rain
4:30 AM 64.0 °F 64.0 °F 100% 29.87 in 10.0 mi ESE 8.1 mph - 0.16 in   Overcast
4:53 AM 64.0 °F 64.0 °F 100% 29.87 in 6.0 mi ESE 5.8 mph - 0.16 in Rain Light Rain
5:53 AM 64.0 °F 64.0 °F 100% 29.91 in 10.0 mi Calm Calm - 0.01 in   Scattered Clouds
6:14 AM 64.0 °F 64.0 °F 100% 29.94 in 10.0 mi West 5.8 mph - N/A   Mostly Cloudy
6:35 AM 64.0 °F 64.0 °F 100% 29.94 in 10.0 mi SSW 3.5 mph - N/A   Scattered Clouds
6:53 AM 64.9 °F 64.0 °F 97% 29.91 in 10.0 mi SE 4.6 mph - N/A   Clear
7:51 AM 66.2 °F 66.2 °F 100% 29.96 in 10.0 mi SSW 9.2 mph - N/A   Mostly Cloudy
7:53 AM 66.0 °F 66.0 °F 100% 29.95 in 10.0 mi SSW 8.1 mph - N/A   Mostly Cloudy
8:53 AM 66.9 °F 64.9 °F 93% 29.96 in 10.0 mi SSW 9.2 mph - N/A   Mostly Cloudy
9:49 AM 66.2 °F 64.4 °F 94% 29.99 in 10.0 mi SSW 10.4 mph - N/A   Mostly Cloudy
10:20 AM 69.1 °F 64.9 °F 87% 29.99 in 10.0 mi SSW 9.2 mph - N/A   Scattered Clouds
10:53 AM 69.1 °F 64.9 °F 87% 29.97 in 10.0 mi South 10.4 mph - N/A   Clear
11:53 AM 71.1 °F 66.0 °F 84% 29.98 in 10.0 mi SSW 12.7 mph - N/A   Overcast
12:45 PM 73.0 °F 66.9 °F 81% 29.97 in 10.0 mi South 15.0 mph 20.7 mph N/A   Mostly Cloudy
12:53 PM 72.0 °F 66.0 °F 81% 29.96 in 10.0 mi South 18.4 mph - N/A   Mostly Cloudy
1:36 PM 73.0 °F 66.9 °F 81% 29.96 in 10.0 mi SSW 12.7 mph 23.0 mph N/A   Overcast
1:53 PM 73.0 °F 66.0 °F 79% 29.95 in 10.0 mi South 17.3 mph 21.9 mph N/A   Mostly Cloudy
2:53 PM 75.9 °F 68.0 °F 76% 29.92 in 10.0 mi SSW 13.8 mph - N/A   Mostly Cloudy
3:12 PM 75.9 °F 68.0 °F 76% 29.92 in 10.0 mi SSW 18.4 mph - N/A   Mostly Cloudy
3:37 PM 75.0 °F 66.9 °F 76% 29.92 in 10.0 mi SSW 13.8 mph 20.7 mph N/A   Mostly Cloudy
3:53 PM 77.0 °F 68.0 °F 74% 29.90 in 10.0 mi South 16.1 mph 26.5 mph N/A   Mostly Cloudy
4:53 PM 73.9 °F 66.9 °F 79% 29.89 in 10.0 mi South 16.1 mph 23.0 mph N/A   Overcast
5:53 PM 73.9 °F 66.9 °F 79% 29.89 in 10.0 mi South 16.1 mph - N/A   Partly Cloudy
6:30 PM 73.0 °F 66.9 °F 81% 29.89 in 10.0 mi South 16.1 mph - N/A   Overcast
6:53 PM 73.0 °F 66.9 °F 81% 29.89 in 10.0 mi South 15.0 mph - N/A   Overcast
7:53 PM 72.0 °F 66.9 °F 84% 29.90 in 10.0 mi South 15.0 mph - N/A   Overcast
8:53 PM 71.1 °F 66.0 °F 84% 29.91 in 10.0 mi South 13.8 mph - N/A   Overcast
10:15 PM 70.0 °F 66.0 °F 87% 29.93 in 10.0 mi South 13.8 mph - N/A   Scattered Clouds
10:23 PM 70.0 °F 66.0 °F 87% 29.93 in 10.0 mi South 15.0 mph - N/A   Mostly Cloudy
10:53 PM 70.0 °F 66.0 °F 87% 29.94 in 10.0 mi South 15.0 mph 20.7 mph N/A   Overcast
11:53 PM 69.1 °F 64.9 °F 87% 29.93 in 10.0 mi South 13.8 mph - N/A   Overcast